Satellite: AUBIESAT Catalog number: 37854 Epoch time: 12034.85490349 Element set: 89 Inclination: 101.7132 deg RA of node: 014.1048 deg Eccentricity: 0.0252526 Arg of perigee: 013.0752 deg Mean anomaly: 347.6847 deg Mean motion: 14.78974832 rev/day Decay rate: 7.030e-05 rev/day^2 Epoch rev: 1452 Checksum: 291
Satellite: HRBE Catalog number: 37855 Epoch time: 12033.97848028 Element set: 0107 Inclination: 101.7164 deg RA of node: 012.8265 deg Eccentricity: 0.0253328 Arg of perigee: 015.5531 deg Mean anomaly: 345.3267 deg Mean motion: 14.78884214 rev/day Decay rate: 6.436e-05 rev/day^2 Epoch rev: 01439 Checksum: 299
Satellite: RS-39 Catalog number: 38051 Epoch time: 12034.62731332 Element set: 29 Inclination: 051.6487 deg RA of node: 079.8964 deg Eccentricity: 0.0011251 Arg of perigee: 281.2566 deg Mean anomaly: 189.9078 deg Mean motion: 15.22076105 rev/day Decay rate: 7.636e-05 rev/day^2 Epoch rev: 146 Checksum: 304
/EX
participants (1)
-
Ray Hoad